Time,TemperatureF,DewpointF,PressureIn,WindDirection,WindDirectionDegrees,WindSpeedMPH,WindSpeedGustMPH,Humidity,HourlyPrecipIn,Conditions,Clouds,dailyrainin,SoftwareType,DateUTC
2013-07-12 00:00:00,73.6,73.0,29.79,North,0,0.0,-999.0,98,-99.99,,,0.00,Acu-Link.com,2013-07-12 02:00:00,
2013-07-12 00:15:00,73.4,72.8,29.79,North,0,0.0,-999.0,98,-99.99,,,0.00,Acu-Link.com,2013-07-12 02:15:00,
2013-07-12 00:45:00,72.9,72.3,29.79,South,180,0.0,-999.0,98,-99.99,,,0.00,Acu-Link.com,2013-07-12 02:45:00,
2013-07-12 01:00:00,72.5,71.9,29.78,NNW,337,0.0,-999.0,98,-99.99,,,0.00,Acu-Link.com,2013-07-12 03:00:00,
2013-07-12 01:16:00,72.1,71.5,29.78,North,0,0.0,-999.0,98,-99.99,,,0.00,Acu-Link.com,2013-07-12 03:16:00,
2013-07-12 01:31:00,71.8,71.2,29.78,ENE,67,0.0,-999.0,98,-99.99,,,0.00,Acu-Link.com,2013-07-12 03:31:00,
2013-07-12 02:01:00,71.2,70.6,29.78,SE,135,0.0,-999.0,98,-99.99,,,0.00,Acu-Link.com,2013-07-12 04:01:00,
2013-07-12 02:16:00,71.2,70.6,29.78,West,270,0.0,-999.0,98,-99.99,,,0.00,Acu-Link.com,2013-07-12 04:16:00,
2013-07-12 02:32:00,71.1,70.5,29.78,NNE,22,0.0,-999.0,98,-99.99,,,0.00,Acu-Link.com,2013-07-12 04:32:00,
2013-07-12 02:47:00,70.9,70.3,29.78,East,90,0.0,-999.0,98,-99.99,,,0.00,Acu-Link.com,2013-07-12 04:47:00,
2013-07-12 03:02:00,70.9,70.3,29.78,East,90,0.0,-999.0,98,-99.99,,,0.00,Acu-Link.com,2013-07-12 05:02:00,
2013-07-12 03:17:00,70.5,69.9,29.78,SSW,202,0.0,-999.0,98,-99.99,,,0.00,Acu-Link.com,2013-07-12 05:17:00,
2013-07-12 03:32:00,70.3,69.7,29.78,SSW,202,0.0,-999.0,98,-99.99,,,0.00,Acu-Link.com,2013-07-12 05:32:00,
2013-07-12 03:47:00,70.2,69.6,29.78,South,180,0.0,-999.0,98,-99.99,,,0.00,Acu-Link.com,2013-07-12 05:47:00,
2013-07-12 04:02:00,70.3,69.7,29.78,ESE,112,0.0,-999.0,98,-99.99,,,0.00,Acu-Link.com,2013-07-12 06:02:00,
2013-07-12 04:18:00,70.5,69.9,29.78,NNW,337,0.0,-999.0,98,-99.99,,,0.00,Acu-Link.com,2013-07-12 06:18:00,
2013-07-12 04:33:00,70.5,69.9,29.77,SSW,202,0.0,-999.0,98,-99.99,,,0.00,Acu-Link.com,2013-07-12 06:33:00,
2013-07-12 04:48:00,70.7,70.1,29.78,ENE,67,0.0,-999.0,98,-99.99,,,0.00,Acu-Link.com,2013-07-12 06:48:00,
2013-07-12 05:03:00,70.7,70.1,29.78,NE,45,0.0,-999.0,98,-99.99,,,0.00,Acu-Link.com,2013-07-12 07:03:00,
2013-07-12 05:18:00,70.9,70.3,29.77,South,180,0.0,-999.0,98,-99.99,,,0.00,Acu-Link.com,2013-07-12 07:18:00,
2013-07-12 05:34:00,70.9,70.3,29.78,NE,45,0.0,-999.0,98,-99.99,,,0.00,Acu-Link.com,2013-07-12 07:34:00,
2013-07-12 05:49:00,71.1,70.5,29.78,SSE,157,0.0,-999.0,98,-99.99,,,0.00,Acu-Link.com,2013-07-12 07:49:00,
2013-07-12 06:04:00,71.1,70.5,29.78,ENE,67,0.0,-999.0,98,-99.99,,,0.00,Acu-Link.com,2013-07-12 08:04:00,
2013-07-12 06:20:00,71.1,70.5,29.78,ENE,67,0.0,-999.0,98,-99.99,,,0.00,Acu-Link.com,2013-07-12 08:20:00,
2013-07-12 06:35:00,71.1,70.5,29.78,NNW,337,0.0,-999.0,98,-99.99,,,0.00,Acu-Link.com,2013-07-12 08:35:00,
2013-07-12 06:50:00,71.1,70.5,29.78,NNW,337,0.0,-999.0,98,-99.99,,,0.00,Acu-Link.com,2013-07-12 08:50:00,
2013-07-12 07:05:00,71.1,70.5,29.77,NE,45,0.0,-999.0,98,-99.99,,,0.00,Acu-Link.com,2013-07-12 09:05:00,
2013-07-12 07:20:00,71.1,70.5,29.78,East,90,0.0,-999.0,98,-99.99,,,0.00,Acu-Link.com,2013-07-12 09:20:00,
2013-07-12 07:35:00,70.7,70.1,29.77,ENE,67,0.0,-999.0,98,-99.99,,,0.00,Acu-Link.com,2013-07-12 09:35:00,
2013-07-12 07:50:00,70.5,69.9,29.77,ENE,67,0.0,-999.0,98,-99.99,,,0.00,Acu-Link.com,2013-07-12 09:50:00,
2013-07-12 08:06:00,70.3,69.7,29.78,NNE,22,0.0,-999.0,98,-99.99,,,0.00,Acu-Link.com,2013-07-12 10:06:00,
2013-07-12 08:21:00,70.2,69.6,29.78,ENE,67,0.0,-999.0,98,-99.99,,,0.00,Acu-Link.com,2013-07-12 10:21:00,
2013-07-12 08:36:00,70.0,69.4,29.78,NNE,22,0.0,-999.0,98,-99.99,,,0.00,Acu-Link.com,2013-07-12 10:36:00,
2013-07-12 08:51:00,69.8,69.2,29.79,East,90,0.0,-999.0,98,-99.99,,,0.00,Acu-Link.com,2013-07-12 10:51:00,
2013-07-12 09:07:00,69.4,68.8,29.79,East,90,0.0,-999.0,98,-99.99,,,0.00,Acu-Link.com,2013-07-12 11:07:00,
2013-07-12 09:22:00,69.4,68.8,29.79,NNE,22,0.0,-999.0,98,-99.99,,,0.00,Acu-Link.com,2013-07-12 11:22:00,
2013-07-12 09:37:00,69.6,69.0,29.79,ENE,67,0.0,-999.0,98,-99.99,,,0.00,Acu-Link.com,2013-07-12 11:37:00,
2013-07-12 09:52:00,69.8,69.2,29.79,NNW,337,0.0,-999.0,98,-99.99,,,0.00,Acu-Link.com,2013-07-12 11:52:00,
2013-07-12 10:08:00,70.0,69.4,29.80,East,90,0.0,-999.0,98,-99.99,,,0.00,Acu-Link.com,2013-07-12 12:08:00,
2013-07-12 10:24:00,70.7,70.1,29.80,NNW,337,0.0,-999.0,98,-99.99,,,0.00,Acu-Link.com,2013-07-12 12:24:00,
2013-07-12 10:39:00,71.4,70.8,29.80,NNW,337,0.0,-999.0,98,-99.99,,,0.00,Acu-Link.com,2013-07-12 12:39:00,
2013-07-12 10:55:00,72.1,71.5,29.81,South,180,0.0,-999.0,98,-99.99,,,0.00,Acu-Link.com,2013-07-12 12:55:00,
2013-07-12 11:10:00,72.7,72.1,29.81,SSE,157,0.0,-999.0,98,-99.99,,,0.00,Acu-Link.com,2013-07-12 13:10:00,
2013-07-12 11:25:00,73.6,73.0,29.81,SSE,157,0.0,-999.0,98,-99.99,,,0.00,Acu-Link.com,2013-07-12 13:25:00,
2013-07-12 11:40:00,74.8,74.2,29.81,East,90,0.0,-999.0,98,-99.99,,,0.00,Acu-Link.com,2013-07-12 13:40:00,
2013-07-12 11:55:00,75.9,75.3,29.81,ESE,112,0.0,-999.0,98,-99.99,,,0.00,Acu-Link.com,2013-07-12 13:55:00,
2013-07-12 12:11:00,77.2,76.6,29.81,SSE,157,0.0,-999.0,98,-99.99,,,0.00,Acu-Link.com,2013-07-12 14:11:00,
2013-07-12 12:26:00,79.9,79.3,29.80,WNW,292,0.0,-999.0,98,-99.99,,,0.00,Acu-Link.com,2013-07-12 14:26:00,
2013-07-12 12:41:00,84.2,83.6,29.80,ENE,67,0.0,-999.0,98,-99.99,,,0.00,Acu-Link.com,2013-07-12 14:41:00,
2013-07-12 12:56:00,81.5,80.9,29.80,South,180,2.2,-999.0,98,-99.99,,,0.00,Acu-Link.com,2013-07-12 14:56:00,
2013-07-12 13:11:00,81.5,80.9,29.80,SE,135,0.0,-999.0,98,-99.99,,,0.00,Acu-Link.com,2013-07-12 15:11:00,
2013-07-12 13:27:00,84.0,83.4,29.80,NNW,337,0.0,-999.0,98,-99.99,,,0.00,Acu-Link.com,2013-07-12 15:27:00,
2013-07-12 13:42:00,84.4,83.8,29.80,South,180,0.0,-999.0,98,-99.99,,,0.00,Acu-Link.com,2013-07-12 15:42:00,
2013-07-12 13:57:00,83.1,82.5,29.80,NNW,337,1.6,-999.0,98,-99.99,,,0.00,Acu-Link.com,2013-07-12 15:57:00,
2013-07-12 14:12:00,83.3,82.7,29.79,NE,45,0.0,-999.0,98,-99.99,,,0.00,Acu-Link.com,2013-07-12 16:12:00,
2013-07-12 14:28:00,82.6,82.0,29.79,ENE,67,1.1,-999.0,98,-99.99,,,0.00,Acu-Link.com,2013-07-12 16:28:00,
2013-07-12 14:43:00,83.3,82.7,29.78,South,180,0.0,-999.0,98,-99.99,,,0.00,Acu-Link.com,2013-07-12 16:43:00,
2013-07-12 14:58:00,84.0,83.4,29.78,ESE,112,0.0,-999.0,98,-99.99,,,0.00,Acu-Link.com,2013-07-12 16:58:00,
2013-07-12 15:13:00,85.5,84.8,29.78,SSW,202,0.0,-999.0,98,-99.99,,,0.00,Acu-Link.com,2013-07-12 17:13:00,
2013-07-12 15:28:00,84.4,83.8,29.78,SW,225,0.0,-999.0,98,-99.99,,,0.00,Acu-Link.com,2013-07-12 17:28:00,
2013-07-12 15:44:00,85.5,84.8,29.77,South,180,0.0,-999.0,98,-99.99,,,0.00,Acu-Link.com,2013-07-12 17:44:00,
2013-07-12 15:59:00,84.9,84.3,29.77,SSW,202,0.0,-999.0,98,-99.99,,,0.00,Acu-Link.com,2013-07-12 17:59:00,
2013-07-12 16:14:00,82.8,82.1,29.76,SSE,157,0.0,-999.0,98,-99.99,,,0.00,Acu-Link.com,2013-07-12 18:14:00,
2013-07-12 16:29:00,81.1,80.5,29.76,NNE,22,0.0,-999.0,98,-99.99,,,0.01,Acu-Link.com,2013-07-12 18:29:00,
2013-07-12 16:44:00,72.5,71.9,29.77,ESE,112,3.8,-999.0,98,-99.99,,,0.22,Acu-Link.com,2013-07-12 18:44:00,
2013-07-12 17:00:00,68.2,67.6,29.79,SSW,202,2.7,-999.0,98,-99.99,,,0.62,Acu-Link.com,2013-07-12 19:00:00,
2013-07-12 17:15:00,66.9,66.3,29.79,NW,315,0.0,-999.0,98,-99.99,,,1.08,Acu-Link.com,2013-07-12 19:15:00,
2013-07-12 17:30:00,67.6,67.1,29.80,NNW,337,2.2,-999.0,98,-99.99,,,1.85,Acu-Link.com,2013-07-12 19:30:00,
2013-07-12 17:45:00,67.8,67.2,29.80,ESE,112,0.0,-999.0,98,-99.99,,,1.91,Acu-Link.com,2013-07-12 19:45:00,
2013-07-12 18:00:00,67.6,67.1,29.79,South,180,0.0,-999.0,98,-99.99,,,1.95,Acu-Link.com,2013-07-12 20:00:00,
2013-07-12 18:16:00,67.8,67.2,29.79,ENE,67,0.0,-999.0,98,-99.99,,,1.97,Acu-Link.com,2013-07-12 20:16:00,
2013-07-12 18:31:00,68.2,67.6,29.79,NNW,337,0.0,-999.0,98,-99.99,,,1.97,Acu-Link.com,2013-07-12 20:31:00,
2013-07-12 18:47:00,68.2,67.6,29.79,NNW,337,0.0,-999.0,98,-99.99,,,1.97,Acu-Link.com,2013-07-12 20:47:00,
2013-07-12 19:02:00,68.4,67.8,29.78,NNE,22,0.0,-999.0,98,-99.99,,,1.97,Acu-Link.com,2013-07-12 21:02:00,
2013-07-12 19:17:00,68.7,68.1,29.78,North,0,0.0,-999.0,98,-99.99,,,1.97,Acu-Link.com,2013-07-12 21:17:00,
2013-07-12 19:32:00,70.0,69.4,29.78,North,0,0.0,-999.0,98,-99.99,,,1.97,Acu-Link.com,2013-07-12 21:32:00,
2013-07-12 19:47:00,70.3,69.7,29.79,NE,45,0.0,-999.0,98,-99.99,,,1.97,Acu-Link.com,2013-07-12 21:47:00,
2013-07-12 20:03:00,71.2,70.6,29.80,North,0,1.1,-999.0,98,-99.99,,,1.97,Acu-Link.com,2013-07-12 22:03:00,
2013-07-12 20:18:00,71.4,70.8,29.80,SSE,157,0.0,-999.0,98,-99.99,,,1.97,Acu-Link.com,2013-07-12 22:18:00,
2013-07-12 20:33:00,71.8,71.2,29.79,SE,135,0.0,-999.0,98,-99.99,,,1.97,Acu-Link.com,2013-07-12 22:33:00,
2013-07-12 20:48:00,72.5,71.9,29.79,SSE,157,0.0,-999.0,98,-99.99,,,1.97,Acu-Link.com,2013-07-12 22:48:00,
2013-07-12 21:03:00,73.0,72.4,29.79,SE,135,0.0,-999.0,98,-99.99,,,1.97,Acu-Link.com,2013-07-12 23:03:00,
2013-07-12 21:19:00,72.3,71.7,29.80,ENE,67,0.0,-999.0,98,-99.99,,,1.97,Acu-Link.com,2013-07-12 23:19:00,
2013-07-12 21:49:00,71.8,71.2,29.80,SSW,202,1.6,-999.0,98,-99.99,,,1.97,Acu-Link.com,2013-07-12 23:49:00,
2013-07-12 22:05:00,70.7,70.1,29.82,SE,135,1.1,-999.0,98,-99.99,,,1.97,Acu-Link.com,2013-07-13 00:05:00,
2013-07-12 22:20:00,70.5,69.9,29.83,SSW,202,0.0,-999.0,98,-99.99,,,1.97,Acu-Link.com,2013-07-13 00:20:00,
2013-07-12 22:36:00,70.0,69.4,29.84,East,90,0.0,-999.0,98,-99.99,,,1.97,Acu-Link.com,2013-07-13 00:36:00,
2013-07-12 22:51:00,68.9,68.3,29.85,East,90,2.2,-999.0,98,-99.99,,,1.97,Acu-Link.com,2013-07-13 00:51:00,
2013-07-12 23:06:00,68.9,68.3,29.85,NE,45,1.1,-999.0,98,-99.99,,,1.97,Acu-Link.com,2013-07-13 01:06:00,
2013-07-12 23:21:00,68.4,67.8,29.85,NE,45,1.6,-999.0,98,-99.99,,,1.97,Acu-Link.com,2013-07-13 01:21:00,
2013-07-12 23:36:00,68.5,68.0,29.83,WSW,247,0.0,-999.0,98,-99.99,,,1.97,Acu-Link.com,2013-07-13 01:36:00,
2013-07-12 23:52:00,68.4,67.8,29.83,NNE,22,0.0,-999.0,98,-99.99,,,1.97,Acu-Link.com,2013-07-13 01:52:00,